Time,TemperatureF,DewpointF,PressureIn,WindDirection,WindDirectionDegrees,WindSpeedMPH,WindSpeedGustMPH,Humidity,HourlyPrecipIn,Conditions,Clouds,dailyrainin,SoftwareType,DateUTC
2013-01-08 00:01:00,46.6,38.5,30.25,East,84,6.0,9.0,73,0.00,,,0.00,meteohub,2013-01-08 06:01:00,
2013-01-08 00:06:00,46.6,38.5,30.25,East,83,5.0,9.0,73,0.00,,,0.00,meteohub,2013-01-08 06:06:00,
2013-01-08 00:11:00,46.6,38.7,30.25,ESE,104,5.0,8.0,74,0.00,,,0.00,meteohub,2013-01-08 06:11:00,
2013-01-08 00:16:00,46.6,38.7,30.24,East,97,8.0,8.0,74,0.00,,,0.00,meteohub,2013-01-08 06:16:00,
2013-01-08 00:22:00,46.6,38.7,30.24,East,86,7.0,10.0,74,0.00,,,0.00,meteohub,2013-01-08 06:22:00,
2013-01-08 00:27:00,46.4,38.5,30.24,ESE,102,8.0,10.0,74,0.00,,,0.00,meteohub,2013-01-08 06:27:00,
2013-01-08 00:32:00,46.4,38.5,30.24,East,79,7.0,10.0,74,0.00,,,0.00,meteohub,2013-01-08 06:32:00,
2013-01-08 00:37:00,46.6,38.7,30.24,East,94,7.0,11.0,74,0.00,,,0.00,meteohub,2013-01-08 06:37:00,
2013-01-08 00:42:00,46.4,38.8,30.24,East,83,5.0,13.0,75,0.00,,,0.00,meteohub,2013-01-08 06:42:00,
2013-01-08 00:47:00,46.2,38.7,30.23,East,95,10.0,13.0,75,0.00,,,0.00,meteohub,2013-01-08 06:47:00,
2013-01-08 00:52:00,46.0,38.5,30.23,ENE,73,4.0,11.0,75,0.00,,,0.00,meteohub,2013-01-08 06:52:00,
2013-01-08 00:57:00,45.9,38.7,30.23,East,97,7.0,11.0,76,0.00,,,0.00,meteohub,2013-01-08 06:57:00,
2013-01-08 01:02:00,45.9,38.7,30.23,East,89,6.0,11.0,76,0.00,,,0.00,meteohub,2013-01-08 07:02:00,
2013-01-08 01:07:00,45.9,38.7,30.23,ENE,60,4.0,9.0,76,0.00,,,0.00,meteohub,2013-01-08 07:07:00,
2013-01-08 01:13:00,45.9,38.7,30.23,NE,39,4.0,9.0,76,0.00,,,0.00,meteohub,2013-01-08 07:13:00,
2013-01-08 01:18:00,45.9,38.7,30.23,East,88,3.0,9.0,76,0.00,,,0.00,meteohub,2013-01-08 07:18:00,
2013-01-08 01:23:00,45.9,38.7,30.24,East,91,5.0,9.0,76,0.00,,,0.00,meteohub,2013-01-08 07:23:00,
2013-01-08 01:28:00,46.0,38.8,30.25,East,79,2.0,9.0,76,0.00,,,0.00,meteohub,2013-01-08 07:28:00,
2013-01-08 01:33:00,45.9,38.7,30.25,ENE,67,5.0,9.0,76,0.00,,,0.00,meteohub,2013-01-08 07:33:00,
2013-01-08 01:38:00,45.9,38.7,30.25,East,84,3.0,8.0,76,0.00,,,0.00,meteohub,2013-01-08 07:38:00,
2013-01-08 01:43:00,45.9,38.7,30.24,East,95,2.0,7.0,76,0.00,,,0.00,meteohub,2013-01-08 07:43:00,
2013-01-08 01:48:00,45.9,39.0,30.25,East,89,5.0,7.0,77,0.00,,,0.00,meteohub,2013-01-08 07:48:00,
2013-01-08 01:53:00,45.9,39.0,30.25,East,87,3.0,7.0,77,0.00,,,0.00,meteohub,2013-01-08 07:53:00,
2013-01-08 01:58:00,45.9,39.0,30.25,East,83,1.0,7.0,77,0.00,,,0.00,meteohub,2013-01-08 07:58:00,
2013-01-08 02:03:00,45.7,38.8,30.24,East,92,2.0,5.0,77,0.00,,,0.00,meteohub,2013-01-08 08:03:00,
2013-01-08 02:09:00,45.7,38.8,30.24,East,81,2.0,5.0,77,0.00,,,0.00,meteohub,2013-01-08 08:09:00,
2013-01-08 02:14:00,45.7,38.8,30.24,East,80,2.0,5.0,77,0.00,,,0.00,meteohub,2013-01-08 08:14:00,
2013-01-08 02:19:00,45.5,39.0,30.24,ESE,106,4.0,6.0,78,0.00,,,0.00,meteohub,2013-01-08 08:19:00,
2013-01-08 02:24:00,45.5,39.0,30.23,East,85,5.0,7.0,78,0.00,,,0.00,meteohub,2013-01-08 08:24:00,
2013-01-08 02:29:00,45.3,38.8,30.24,ENE,67,3.0,7.0,78,0.00,,,0.00,meteohub,2013-01-08 08:29:00,
2013-01-08 02:34:00,45.3,38.8,30.24,ESE,102,4.0,8.0,78,0.00,,,0.00,meteohub,2013-01-08 08:34:00,
2013-01-08 02:39:00,45.5,39.0,30.24,East,87,2.0,8.0,78,0.00,,,0.00,meteohub,2013-01-08 08:39:00,
2013-01-08 02:44:00,45.5,39.0,30.24,East,88,5.0,7.0,78,0.00,,,0.00,meteohub,2013-01-08 08:44:00,
2013-01-08 02:49:00,45.7,39.2,30.24,East,91,3.0,7.0,78,0.00,,,0.00,meteohub,2013-01-08 08:49:00,
2013-01-08 02:54:00,45.7,39.2,30.23,East,85,2.0,7.0,78,0.00,,,0.00,meteohub,2013-01-08 08:54:00,
2013-01-08 03:00:00,45.9,39.4,30.23,ENE,69,2.0,7.0,78,0.00,,,0.00,meteohub,2013-01-08 09:00:00,
2013-01-08 03:05:00,45.9,39.0,30.23,ESE,106,3.0,7.0,77,0.00,,,0.00,meteohub,2013-01-08 09:05:00,
2013-01-08 03:10:00,45.9,39.0,30.24,ENE,66,3.0,6.0,77,0.00,,,0.00,meteohub,2013-01-08 09:10:00,
2013-01-08 03:15:00,46.0,39.2,30.24,East,85,3.0,7.0,77,0.00,,,0.00,meteohub,2013-01-08 09:15:00,
2013-01-08 03:20:00,46.0,39.2,30.23,ESE,112,4.0,8.0,77,0.00,,,0.00,meteohub,2013-01-08 09:20:00,
2013-01-08 03:25:00,45.9,39.0,30.23,East,92,5.0,8.0,77,0.00,,,0.00,meteohub,2013-01-08 09:25:00,
2013-01-08 03:30:00,45.9,39.4,30.23,East,83,3.0,8.0,78,0.00,,,0.00,meteohub,2013-01-08 09:30:00,
2013-01-08 03:35:00,45.9,39.4,30.23,ENE,76,4.0,8.0,78,0.00,,,0.00,meteohub,2013-01-08 09:35:00,
2013-01-08 03:40:00,45.7,39.2,30.23,East,91,5.0,8.0,78,0.00,,,0.00,meteohub,2013-01-08 09:40:00,
2013-01-08 03:46:00,45.9,39.4,30.23,East,81,3.0,8.0,78,0.00,,,0.00,meteohub,2013-01-08 09:46:00,
2013-01-08 03:51:00,45.9,39.4,30.23,East,97,5.0,8.0,78,0.00,,,0.00,meteohub,2013-01-08 09:51:00,
2013-01-08 03:56:00,45.7,39.2,30.23,East,94,5.0,8.0,78,0.00,,,0.00,meteohub,2013-01-08 09:56:00,
2013-01-08 04:01:00,45.7,39.2,30.23,East,89,5.0,7.0,78,0.00,,,0.00,meteohub,2013-01-08 10:01:00,
2013-01-08 04:06:00,45.7,39.2,30.23,East,86,2.0,8.0,78,0.00,,,0.00,meteohub,2013-01-08 10:06:00,
2013-01-08 04:11:00,45.7,39.2,30.23,East,91,3.0,8.0,78,0.00,,,0.00,meteohub,2013-01-08 10:11:00,
2013-01-08 04:16:00,45.5,39.0,30.23,East,85,5.0,8.0,78,0.00,,,0.00,meteohub,2013-01-08 10:16:00,
2013-01-08 04:21:00,45.5,39.0,30.23,East,85,5.0,7.0,78,0.00,,,0.00,meteohub,2013-01-08 10:21:00,
2013-01-08 04:26:00,45.5,39.0,30.23,ENE,66,4.0,9.0,78,0.00,,,0.00,meteohub,2013-01-08 10:26:00,
2013-01-08 04:32:00,45.7,39.2,30.23,ESE,102,5.0,9.0,78,0.00,,,0.00,meteohub,2013-01-08 10:32:00,
2013-01-08 04:37:00,45.7,39.2,30.23,East,85,3.0,9.0,78,0.00,,,0.00,meteohub,2013-01-08 10:37:00,
2013-01-08 04:42:00,45.7,39.6,30.23,East,88,5.0,9.0,79,0.00,,,0.00,meteohub,2013-01-08 10:42:00,
2013-01-08 04:47:00,45.7,39.2,30.23,ENE,72,4.0,9.0,78,0.00,,,0.00,meteohub,2013-01-08 10:47:00,
2013-01-08 04:52:00,45.7,39.2,30.24,East,101,2.0,7.0,78,0.00,,,0.00,meteohub,2013-01-08 10:52:00,
2013-01-08 04:57:00,45.5,39.0,30.24,East,81,2.0,7.0,78,0.00,,,0.00,meteohub,2013-01-08 10:57:00,
2013-01-08 05:02:00,45.5,39.0,30.24,East,81,2.0,7.0,78,0.00,,,0.00,meteohub,2013-01-08 11:02:00,
2013-01-08 05:07:00,45.5,39.0,30.24,East,89,5.0,7.0,78,0.00,,,0.00,meteohub,2013-01-08 11:07:00,
2013-01-08 05:12:00,45.5,39.0,30.24,East,81,5.0,6.0,78,0.00,,,0.00,meteohub,2013-01-08 11:12:00,
2013-01-08 05:17:00,45.3,38.8,30.24,East,92,3.0,7.0,78,0.00,,,0.00,meteohub,2013-01-08 11:17:00,
2013-01-08 05:22:00,45.3,38.8,30.24,East,89,3.0,8.0,78,0.00,,,0.00,meteohub,2013-01-08 11:22:00,
2013-01-08 05:27:00,45.3,38.8,30.24,ENE,70,3.0,8.0,78,0.00,,,0.00,meteohub,2013-01-08 11:27:00,
2013-01-08 05:32:00,45.3,38.8,30.24,East,89,5.0,8.0,78,0.00,,,0.00,meteohub,2013-01-08 11:32:00,
2013-01-08 05:37:00,45.3,38.8,30.25,East,85,5.0,8.0,78,0.00,,,0.00,meteohub,2013-01-08 11:37:00,
2013-01-08 05:42:00,45.5,39.0,30.25,East,93,3.0,7.0,78,0.00,,,0.00,meteohub,2013-01-08 11:42:00,
2013-01-08 05:47:00,45.7,39.2,30.25,East,88,5.0,7.0,78,0.00,,,0.00,meteohub,2013-01-08 11:47:00,
2013-01-08 05:52:00,45.7,39.6,30.25,East,79,3.0,6.0,79,0.00,,,0.00,meteohub,2013-01-08 11:52:00,
2013-01-08 05:57:00,45.9,39.4,30.25,East,79,1.0,6.0,78,0.00,,,0.00,meteohub,2013-01-08 11:57:00,
2013-01-08 06:02:00,45.7,39.2,30.25,East,100,3.0,6.0,78,0.00,,,0.00,meteohub,2013-01-08 12:02:00,
2013-01-08 06:07:00,45.7,39.2,30.25,ENE,73,3.0,7.0,78,0.00,,,0.00,meteohub,2013-01-08 12:07:00,
2013-01-08 06:12:00,45.7,39.6,30.26,ENE,77,3.0,7.0,79,0.00,,,0.00,meteohub,2013-01-08 12:12:00,
2013-01-08 06:17:00,45.7,39.6,30.26,East,80,3.0,7.0,79,0.00,,,0.00,meteohub,2013-01-08 12:17:00,
2013-01-08 06:22:00,45.9,39.4,30.26,ENE,72,2.0,7.0,78,0.00,,,0.00,meteohub,2013-01-08 12:22:00,
2013-01-08 06:27:00,46.0,39.6,30.26,East,91,1.0,6.0,78,0.00,,,0.00,meteohub,2013-01-08 12:27:00,
2013-01-08 06:32:00,46.0,39.6,30.27,East,85,3.0,6.0,78,0.00,,,0.00,meteohub,2013-01-08 12:32:00,
2013-01-08 06:37:00,46.0,39.6,30.27,East,83,5.0,6.0,78,0.00,,,0.00,meteohub,2013-01-08 12:37:00,
2013-01-08 06:42:00,46.0,39.6,30.27,East,95,5.0,7.0,78,0.00,,,0.00,meteohub,2013-01-08 12:42:00,
2013-01-08 06:47:00,46.0,39.6,30.27,East,85,3.0,7.0,78,0.00,,,0.00,meteohub,2013-01-08 12:47:00,
2013-01-08 06:52:00,46.2,39.7,30.27,East,95,3.0,7.0,78,0.00,,,0.00,meteohub,2013-01-08 12:52:00,
2013-01-08 06:57:00,46.2,39.7,30.27,East,97,3.0,7.0,78,0.00,,,0.00,meteohub,2013-01-08 12:57:00,
2013-01-08 07:02:00,46.2,40.1,30.27,ENE,66,3.0,7.0,79,0.00,,,0.00,meteohub,2013-01-08 13:02:00,
2013-01-08 07:07:00,46.2,40.1,30.27,ESE,108,4.0,7.0,79,0.00,,,0.00,meteohub,2013-01-08 13:07:00,
2013-01-08 07:12:00,46.4,39.9,30.27,ENE,74,2.0,7.0,78,0.00,,,0.00,meteohub,2013-01-08 13:12:00,
2013-01-08 07:17:00,46.6,40.5,30.27,East,98,5.0,7.0,79,0.00,,,0.00,meteohub,2013-01-08 13:17:00,
2013-01-08 07:22:00,46.8,40.6,30.27,East,95,2.0,8.0,79,0.00,,,0.00,meteohub,2013-01-08 13:22:00,
2013-01-08 07:27:00,46.8,40.3,30.28,East,82,7.0,9.0,78,0.00,,,0.00,meteohub,2013-01-08 13:27:00,
2013-01-08 07:32:00,46.9,40.5,30.28,East,86,5.0,9.0,78,0.00,,,0.00,meteohub,2013-01-08 13:32:00,
2013-01-08 07:37:00,47.1,40.6,30.28,East,88,9.0,9.0,78,0.00,,,0.00,meteohub,2013-01-08 13:37:00,
2013-01-08 07:42:00,47.1,40.6,30.28,ENE,75,4.0,9.0,78,0.00,,,0.00,meteohub,2013-01-08 13:42:00,
2013-01-08 07:47:00,47.3,40.8,30.29,ESE,105,3.0,9.0,78,0.00,,,0.00,meteohub,2013-01-08 13:47:00,
2013-01-08 07:52:00,47.5,41.0,30.29,ENE,77,3.0,9.0,78,0.00,,,0.00,meteohub,2013-01-08 13:52:00,
2013-01-08 07:57:00,47.7,41.2,30.29,East,89,6.0,8.0,78,0.00,,,0.00,meteohub,2013-01-08 13:57:00,
2013-01-08 08:02:00,47.8,41.4,30.29,East,100,3.0,8.0,78,0.00,,,0.00,meteohub,2013-01-08 14:02:00,
2013-01-08 08:07:00,47.8,41.4,30.29,ENE,71,4.0,8.0,78,0.00,,,0.00,meteohub,2013-01-08 14:07:00,
2013-01-08 08:12:00,48.0,41.5,30.30,East,82,5.0,7.0,78,0.00,,,0.00,meteohub,2013-01-08 14:12:00,
2013-01-08 08:17:00,48.2,41.7,30.30,ENE,76,2.0,7.0,78,0.00,,,0.00,meteohub,2013-01-08 14:17:00,
2013-01-08 08:22:00,48.4,41.9,30.30,ENE,74,1.0,7.0,78,0.00,,,0.00,meteohub,2013-01-08 14:22:00,
2013-01-08 08:27:00,48.6,42.1,30.30,ENE,61,2.0,6.0,78,0.00,,,0.00,meteohub,2013-01-08 14:27:00,
2013-01-08 08:32:00,48.7,42.3,30.30,ENE,70,1.0,6.0,78,0.00,,,0.00,meteohub,2013-01-08 14:32:00,
2013-01-08 08:37:00,48.7,42.3,30.30,East,93,2.0,6.0,78,0.00,,,0.00,meteohub,2013-01-08 14:37:00,
2013-01-08 08:42:00,48.9,42.4,30.30,ENE,62,3.0,6.0,78,0.00,,,0.00,meteohub,2013-01-08 14:42:00,
2013-01-08 08:47:00,49.3,42.8,30.30,ESE,102,5.0,6.0,78,0.00,,,0.00,meteohub,2013-01-08 14:47:00,
2013-01-08 08:52:00,49.5,42.8,30.30,ENE,57,4.0,7.0,78,0.00,,,0.00,meteohub,2013-01-08 14:52:00,
2013-01-08 08:57:00,49.6,42.8,30.30,East,83,6.0,7.0,77,0.00,,,0.00,meteohub,2013-01-08 14:57:00,
2013-01-08 09:02:00,49.8,43.0,30.30,East,86,6.0,8.0,77,0.00,,,0.00,meteohub,2013-01-08 15:02:00,
2013-01-08 09:07:00,50.0,43.3,30.30,East,82,3.0,8.0,78,0.00,,,0.00,meteohub,2013-01-08 15:07:00,
2013-01-08 09:12:00,50.4,43.3,30.30,East,94,6.0,8.0,77,0.00,,,0.00,meteohub,2013-01-08 15:12:00,
2013-01-08 09:17:00,50.5,43.5,30.30,ESE,108,4.0,12.0,77,0.00,,,0.00,meteohub,2013-01-08 15:17:00,
2013-01-08 09:22:00,50.5,43.5,30.30,East,100,3.0,12.0,77,0.00,,,0.00,meteohub,2013-01-08 15:22:00,
2013-01-08 09:27:00,50.7,43.7,30.30,ENE,72,3.0,12.0,77,0.00,,,0.00,meteohub,2013-01-08 15:27:00,
2013-01-08 09:32:00,50.7,43.7,30.30,ESE,106,3.0,9.0,77,0.00,,,0.00,meteohub,2013-01-08 15:32:00,
2013-01-08 09:37:00,51.1,44.1,30.30,ESE,107,3.0,9.0,77,0.00,,,0.00,meteohub,2013-01-08 15:37:00,
2013-01-08 09:42:00,51.3,44.2,30.30,East,91,1.0,9.0,77,0.00,,,0.00,meteohub,2013-01-08 15:42:00,
2013-01-08 09:47:00,51.4,44.4,30.30,East,88,7.0,8.0,77,0.00,,,0.00,meteohub,2013-01-08 15:47:00,
2013-01-08 09:52:00,51.6,44.6,30.30,East,95,6.0,8.0,77,0.00,,,0.00,meteohub,2013-01-08 15:52:00,
2013-01-08 09:57:00,52.0,45.0,30.30,ESE,106,2.0,9.0,77,0.00,,,0.00,meteohub,2013-01-08 15:57:00,
2013-01-08 10:02:00,52.2,45.1,30.30,East,101,2.0,9.0,77,0.00,,,0.00,meteohub,2013-01-08 16:02:00,
2013-01-08 10:07:00,52.5,45.1,30.30,East,98,2.0,9.0,76,0.00,,,0.00,meteohub,2013-01-08 16:07:00,
2013-01-08 10:12:00,53.2,45.5,30.30,East,98,5.0,6.0,75,0.00,,,0.00,meteohub,2013-01-08 16:12:00,
2013-01-08 10:17:00,53.2,45.9,30.30,ESE,116,1.0,8.0,76,0.00,,,0.00,meteohub,2013-01-08 16:17:00,
2013-01-08 10:22:00,53.2,45.9,30.30,East,97,5.0,8.0,76,0.00,,,0.00,meteohub,2013-01-08 16:22:00,
2013-01-08 10:27:00,53.2,45.9,30.30,East,89,1.0,8.0,76,0.00,,,0.00,meteohub,2013-01-08 16:27:00,
2013-01-08 10:32:00,53.6,46.2,30.30,East,83,3.0,7.0,76,0.00,,,0.00,meteohub,2013-01-08 16:32:00,
2013-01-08 10:37:00,54.0,46.6,30.30,ESE,104,1.0,6.0,76,0.00,,,0.00,meteohub,2013-01-08 16:37:00,
2013-01-08 10:42:00,54.1,46.8,30.30,ESE,104,3.0,5.0,76,0.00,,,0.00,meteohub,2013-01-08 16:42:00,
2013-01-08 10:47:00,54.5,46.8,30.29,ENE,68,3.0,5.0,75,0.00,,,0.00,meteohub,2013-01-08 16:47:00,
2013-01-08 10:52:00,54.9,47.1,30.28,ENE,63,3.0,5.0,75,0.00,,,0.00,meteohub,2013-01-08 16:52:00,
2013-01-08 10:57:00,55.2,47.1,30.28,East,79,3.0,6.0,74,0.00,,,0.00,meteohub,2013-01-08 16:57:00,
2013-01-08 11:02:00,55.6,47.5,30.28,East,85,3.0,7.0,74,0.00,,,0.00,meteohub,2013-01-08 17:02:00,
2013-01-08 11:07:00,55.9,47.8,30.28,East,79,0.0,7.0,74,0.00,,,0.00,meteohub,2013-01-08 17:07:00,
2013-01-08 11:12:00,56.1,48.0,30.28,East,85,5.0,7.0,74,0.00,,,0.00,meteohub,2013-01-08 17:12:00,
2013-01-08 11:17:00,56.5,48.4,30.27,East,90,5.0,9.0,74,0.00,,,0.00,meteohub,2013-01-08 17:17:00,
2013-01-08 11:22:00,56.8,48.6,30.27,NE,48,3.0,9.0,74,0.00,,,0.00,meteohub,2013-01-08 17:22:00,
2013-01-08 11:27:00,57.0,48.4,30.27,ESE,114,1.0,9.0,73,0.00,,,0.00,meteohub,2013-01-08 17:27:00,
2013-01-08 11:32:00,57.4,49.1,30.27,East,93,5.0,7.0,74,0.00,,,0.00,meteohub,2013-01-08 17:32:00,
2013-01-08 11:37:00,57.6,48.9,30.27,SSE,149,3.0,7.0,73,0.00,,,0.00,meteohub,2013-01-08 17:37:00,
2013-01-08 11:42:00,57.6,48.9,30.27,ESE,118,0.0,7.0,73,0.00,,,0.00,meteohub,2013-01-08 17:42:00,
2013-01-08 11:47:00,57.9,49.3,30.27,East,92,1.0,5.0,73,0.00,,,0.00,meteohub,2013-01-08 17:47:00,
2013-01-08 11:52:00,57.9,49.3,30.27,East,97,2.0,4.0,73,0.00,,,0.00,meteohub,2013-01-08 17:52:00,
2013-01-08 11:57:00,57.9,49.6,30.27,ESE,102,0.0,6.0,74,0.00,,,0.00,meteohub,2013-01-08 17:57:00,
2013-01-08 12:02:00,58.1,49.5,30.27,ESE,102,0.0,6.0,73,0.00,,,0.00,meteohub,2013-01-08 18:02:00,
2013-01-08 12:07:00,58.3,50.0,30.27,ESE,102,0.0,6.0,74,0.00,,,0.00,meteohub,2013-01-08 18:07:00,
2013-01-08 12:12:00,58.3,49.6,30.27,ESE,102,0.0,2.0,73,0.00,,,0.00,meteohub,2013-01-08 18:12:00,
2013-01-08 12:17:00,58.3,49.6,30.27,ESE,102,0.0,2.0,73,0.00,,,0.00,meteohub,2013-01-08 18:17:00,
2013-01-08 12:23:00,58.3,49.6,30.26,ESE,102,1.0,2.0,73,0.00,,,0.00,meteohub,2013-01-08 18:23:00,
2013-01-08 12:28:00,58.3,49.6,30.26,ESE,102,0.0,2.0,73,0.00,,,0.00,meteohub,2013-01-08 18:28:00,
2013-01-08 12:33:00,58.3,50.0,30.25,ESE,102,1.0,3.0,74,0.00,,,0.00,meteohub,2013-01-08 18:33:00,
2013-01-08 12:38:00,58.3,50.0,30.25,ENE,60,1.0,3.0,74,0.00,,,0.00,meteohub,2013-01-08 18:38:00,
2013-01-08 12:43:00,58.5,50.2,30.25,East,95,1.0,4.0,74,0.00,,,0.00,meteohub,2013-01-08 18:43:00,
2013-01-08 12:48:00,58.6,50.0,30.25,East,95,0.0,4.0,73,0.00,,,0.00,meteohub,2013-01-08 18:48:00,
2013-01-08 12:53:00,58.8,50.2,30.24,ENE,64,1.0,5.0,73,0.00,,,0.00,meteohub,2013-01-08 18:53:00,
2013-01-08 12:58:00,59.0,50.4,30.24,NNE,29,1.0,5.0,73,0.00,,,0.00,meteohub,2013-01-08 18:58:00,
2013-01-08 13:03:00,58.8,50.2,30.24,NNE,29,2.0,5.0,73,0.00,,,0.00,meteohub,2013-01-08 19:03:00,
2013-01-08 13:08:00,59.0,50.7,30.24,East,97,1.0,5.0,74,0.00,,,0.00,meteohub,2013-01-08 19:08:00,
2013-01-08 13:14:00,59.2,50.9,30.24,East,98,1.0,3.0,74,0.00,,,0.00,meteohub,2013-01-08 19:14:00,
2013-01-08 13:19:00,59.4,51.1,30.23,NE,52,1.0,3.0,74,0.00,,,0.00,meteohub,2013-01-08 19:19:00,
2013-01-08 13:24:00,59.5,50.9,30.23,ENE,62,2.0,3.0,73,0.00,,,0.00,meteohub,2013-01-08 19:24:00,
2013-01-08 13:29:00,59.7,51.1,30.23,NNE,29,0.0,3.0,73,0.00,,,0.00,meteohub,2013-01-08 19:29:00,
2013-01-08 13:34:00,60.3,51.6,30.23,ENE,58,0.0,3.0,73,0.00,,,0.00,meteohub,2013-01-08 19:34:00,
2013-01-08 13:39:00,60.4,51.8,30.23,NE,48,0.0,3.0,73,0.00,,,0.00,meteohub,2013-01-08 19:39:00,
2013-01-08 13:44:00,60.6,52.0,30.23,NE,56,1.0,3.0,73,0.00,,,0.00,meteohub,2013-01-08 19:44:00,
2013-01-08 13:49:00,60.8,52.2,30.22,SE,125,2.0,4.0,73,0.00,,,0.00,meteohub,2013-01-08 19:49:00,
2013-01-08 13:54:00,60.8,52.2,30.22,ESE,104,2.0,5.0,73,0.00,,,0.00,meteohub,2013-01-08 19:54:00,
2013-01-08 13:59:00,61.2,52.5,30.22,ESE,103,3.0,5.0,73,0.00,,,0.00,meteohub,2013-01-08 19:59:00,
2013-01-08 14:05:00,61.5,52.7,30.22,ESE,120,1.0,5.0,73,0.00,,,0.00,meteohub,2013-01-08 20:05:00,
2013-01-08 14:10:00,61.9,52.7,30.22,East,96,5.0,6.0,72,0.00,,,0.00,meteohub,2013-01-08 20:10:00,
2013-01-08 14:15:00,62.2,53.1,30.21,ESE,102,4.0,6.0,72,0.00,,,0.00,meteohub,2013-01-08 20:15:00,
2013-01-08 14:20:00,62.6,53.4,30.21,NE,53,2.0,6.0,72,0.00,,,0.00,meteohub,2013-01-08 20:20:00,
2013-01-08 14:25:00,63.0,53.4,30.21,SE,126,2.0,6.0,71,0.00,,,0.00,meteohub,2013-01-08 20:25:00,
2013-01-08 14:30:00,63.0,53.1,30.21,East,83,5.0,8.0,70,0.00,,,0.00,meteohub,2013-01-08 20:30:00,
2013-01-08 14:35:00,62.6,53.1,30.22,East,100,5.0,8.0,71,0.00,,,0.00,meteohub,2013-01-08 20:35:00,
2013-01-08 14:40:00,62.4,52.9,30.22,East,83,5.0,8.0,71,0.00,,,0.00,meteohub,2013-01-08 20:40:00,
2013-01-08 14:45:00,62.4,53.2,30.22,East,91,3.0,8.0,72,0.00,,,0.00,meteohub,2013-01-08 20:45:00,
2013-01-08 14:50:00,62.6,53.4,30.22,East,94,6.0,6.0,72,0.00,,,0.00,meteohub,2013-01-08 20:50:00,
2013-01-08 14:56:00,62.8,53.6,30.22,ENE,72,4.0,8.0,72,0.00,,,0.00,meteohub,2013-01-08 20:56:00,
2013-01-08 15:01:00,63.0,53.8,30.22,East,88,1.0,8.0,72,0.00,,,0.00,meteohub,2013-01-08 21:01:00,
2013-01-08 15:06:00,63.1,54.0,30.22,ENE,74,0.0,8.0,72,0.00,,,0.00,meteohub,2013-01-08 21:06:00,
2013-01-08 15:11:00,63.1,53.6,30.22,ESE,110,1.0,7.0,71,0.00,,,0.00,meteohub,2013-01-08 21:11:00,
2013-01-08 15:16:00,63.1,54.0,30.22,ENE,76,1.0,5.0,72,0.00,,,0.00,meteohub,2013-01-08 21:16:00,
2013-01-08 15:21:00,63.1,54.0,30.22,ENE,67,0.0,5.0,72,0.00,,,0.00,meteohub,2013-01-08 21:21:00,
2013-01-08 15:26:00,63.1,54.0,30.23,ESE,109,2.0,5.0,72,0.00,,,0.00,meteohub,2013-01-08 21:26:00,
2013-01-08 15:31:00,63.1,54.3,30.23,ESE,109,0.0,3.0,73,0.00,,,0.00,meteohub,2013-01-08 21:31:00,
2013-01-08 15:36:00,63.1,54.3,30.22,ESE,109,2.0,2.0,73,0.00,,,0.00,meteohub,2013-01-08 21:36:00,
2013-01-08 15:41:00,63.0,54.1,30.22,East,86,0.0,3.0,73,0.00,,,0.00,meteohub,2013-01-08 21:41:00,
2013-01-08 15:47:00,63.0,54.1,30.22,East,86,0.0,3.0,73,0.00,,,0.00,meteohub,2013-01-08 21:47:00,
2013-01-08 15:52:00,63.0,54.5,30.22,East,86,0.0,3.0,74,0.00,,,0.00,meteohub,2013-01-08 21:52:00,
2013-01-08 15:57:00,63.0,54.5,30.23,East,86,0.0,0.0,74,0.00,,,0.00,meteohub,2013-01-08 21:57:00,
2013-01-08 16:02:00,63.0,54.5,30.23,East,86,0.0,0.0,74,0.00,,,0.00,meteohub,2013-01-08 22:02:00,
2013-01-08 16:07:00,63.0,54.5,30.23,East,86,0.0,0.0,74,0.00,,,0.00,meteohub,2013-01-08 22:07:00,
2013-01-08 16:12:00,63.0,54.5,30.23,East,86,0.0,0.0,74,0.00,,,0.00,meteohub,2013-01-08 22:12:00,
2013-01-08 16:17:00,62.8,54.7,30.22,East,86,0.0,0.0,75,0.00,,,0.00,meteohub,2013-01-08 22:17:00,
2013-01-08 16:22:00,62.4,54.3,30.22,East,86,0.0,1.0,75,0.00,,,0.00,meteohub,2013-01-08 22:22:00,
2013-01-08 16:27:00,62.4,54.7,30.23,East,86,0.0,2.0,76,0.00,,,0.00,meteohub,2013-01-08 22:27:00,
2013-01-08 16:32:00,62.4,54.7,30.23,East,86,0.0,2.0,76,0.00,,,0.00,meteohub,2013-01-08 22:32:00,
2013-01-08 16:37:00,62.4,54.3,30.22,East,87,2.0,2.0,75,0.00,,,0.00,meteohub,2013-01-08 22:37:00,
2013-01-08 16:42:00,62.2,54.1,30.22,East,89,1.0,3.0,75,0.00,,,0.00,meteohub,2013-01-08 22:42:00,
2013-01-08 16:47:00,62.2,54.5,30.22,East,91,1.0,3.0,76,0.00,,,0.00,meteohub,2013-01-08 22:47:00,
2013-01-08 16:52:00,62.2,54.1,30.22,ENE,73,1.0,3.0,75,0.00,,,0.00,meteohub,2013-01-08 22:52:00,
2013-01-08 16:57:00,62.2,54.5,30.22,ESE,102,0.0,3.0,76,0.00,,,0.00,meteohub,2013-01-08 22:57:00,
2013-01-08 17:02:00,62.1,54.7,30.22,ESE,102,0.0,3.0,77,0.00,,,0.00,meteohub,2013-01-08 23:02:00,
2013-01-08 17:07:00,62.1,54.7,30.22,ESE,102,0.0,3.0,77,0.00,,,0.00,meteohub,2013-01-08 23:07:00,
2013-01-08 17:12:00,61.9,54.7,30.22,ESE,102,0.0,1.0,77,0.00,,,0.00,meteohub,2013-01-08 23:12:00,
2013-01-08 17:17:00,61.7,54.5,30.23,ESE,102,0.0,1.0,77,0.00,,,0.00,meteohub,2013-01-08 23:17:00,
2013-01-08 17:22:00,61.5,54.7,30.24,ESE,102,0.0,1.0,78,0.00,,,0.00,meteohub,2013-01-08 23:22:00,
2013-01-08 17:27:00,61.5,54.7,30.24,ESE,102,0.0,0.0,78,0.00,,,0.00,meteohub,2013-01-08 23:27:00,
2013-01-08 17:32:00,61.5,54.7,30.23,ESE,102,1.0,0.0,78,0.00,,,0.00,meteohub,2013-01-08 23:32:00,
2013-01-08 17:37:00,61.3,54.5,30.22,East,81,2.0,2.0,78,0.00,,,0.00,meteohub,2013-01-08 23:37:00,
2013-01-08 17:42:00,61.3,54.5,30.22,East,82,1.0,3.0,78,0.00,,,0.00,meteohub,2013-01-08 23:42:00,
2013-01-08 17:47:00,61.3,54.9,30.22,East,81,3.0,4.0,79,0.00,,,0.00,meteohub,2013-01-08 23:47:00,
2013-01-08 17:52:00,61.2,54.7,30.22,ENE,73,0.0,4.0,79,0.00,,,0.00,meteohub,2013-01-08 23:52:00,
2013-01-08 17:57:00,61.3,54.9,30.22,East,93,1.0,4.0,79,0.00,,,0.00,meteohub,2013-01-08 23:57:00,
2013-01-08 18:02:00,61.3,54.5,30.22,ENE,77,1.0,4.0,78,0.00,,,0.00,meteohub,2013-01-09 00:02:00,
2013-01-08 18:07:00,61.3,54.5,30.22,East,85,2.0,4.0,78,0.00,,,0.00,meteohub,2013-01-09 00:07:00,
2013-01-08 18:12:00,61.3,54.5,30.22,East,80,1.0,5.0,78,0.00,,,0.00,meteohub,2013-01-09 00:12:00,
2013-01-08 18:17:00,61.3,54.5,30.22,ENE,78,3.0,5.0,78,0.00,,,0.00,meteohub,2013-01-09 00:17:00,
2013-01-08 18:22:00,61.3,54.5,30.22,ENE,73,0.0,5.0,78,0.00,,,0.00,meteohub,2013-01-09 00:22:00,
2013-01-08 18:27:00,61.3,54.1,30.23,East,95,3.0,4.0,77,0.00,,,0.00,meteohub,2013-01-09 00:27:00,
2013-01-08 18:32:00,61.5,54.7,30.22,East,91,3.0,4.0,78,0.00,,,0.00,meteohub,2013-01-09 00:32:00,
2013-01-08 18:37:00,61.3,54.1,30.22,East,87,5.0,6.0,77,0.00,,,0.00,meteohub,2013-01-09 00:37:00,
2013-01-08 18:42:00,61.3,54.1,30.22,ENE,66,4.0,6.0,77,0.00,,,0.00,meteohub,2013-01-09 00:42:00,
2013-01-08 18:47:00,61.3,54.1,30.22,East,89,3.0,7.0,77,0.00,,,0.00,meteohub,2013-01-09 00:47:00,
2013-01-08 18:52:00,61.5,54.3,30.22,East,90,2.0,7.0,77,0.00,,,0.00,meteohub,2013-01-09 00:52:00,
2013-01-08 18:57:00,61.5,54.3,30.22,ENE,68,3.0,7.0,77,0.00,,,0.00,meteohub,2013-01-09 00:57:00,
2013-01-08 19:02:00,61.9,54.7,30.23,NE,51,4.0,8.0,77,0.00,,,0.00,meteohub,2013-01-09 01:02:00,
2013-01-08 19:07:00,61.9,54.3,30.23,East,89,6.0,8.0,76,0.00,,,0.00,meteohub,2013-01-09 01:07:00,
2013-01-08 19:12:00,61.9,54.3,30.23,East,85,6.0,8.0,76,0.00,,,0.00,meteohub,2013-01-09 01:12:00,
2013-01-08 19:17:00,61.9,54.3,30.22,East,92,5.0,8.0,76,0.00,,,0.00,meteohub,2013-01-09 01:17:00,
2013-01-08 19:22:00,61.9,54.3,30.22,East,79,7.0,8.0,76,0.00,,,0.00,meteohub,2013-01-09 01:22:00,
2013-01-08 19:27:00,61.9,54.3,30.22,East,89,5.0,8.0,76,0.00,,,0.00,meteohub,2013-01-09 01:27:00,
2013-01-08 19:32:00,61.9,54.3,30.22,ENE,65,5.0,9.0,76,0.00,,,0.00,meteohub,2013-01-09 01:32:00,
2013-01-08 19:37:00,61.9,54.3,30.22,East,84,6.0,9.0,76,0.00,,,0.00,meteohub,2013-01-09 01:37:00,
2013-01-08 19:42:00,61.9,54.3,30.22,East,86,8.0,9.0,76,0.00,,,0.00,meteohub,2013-01-09 01:42:00,
2013-01-08 19:47:00,61.9,54.3,30.23,NE,46,3.0,13.0,76,0.00,,,0.00,meteohub,2013-01-09 01:47:00,
2013-01-08 19:52:00,61.9,54.7,30.22,East,94,5.0,13.0,77,0.00,,,0.00,meteohub,2013-01-09 01:52:00,
2013-01-08 19:57:00,61.7,54.5,30.23,East,85,5.0,9.0,77,0.00,,,0.00,meteohub,2013-01-09 01:57:00,
2013-01-08 20:02:00,61.7,54.5,30.23,ENE,75,4.0,9.0,77,0.00,,,0.00,meteohub,2013-01-09 02:02:00,
2013-01-08 20:07:00,61.5,54.3,30.22,ENE,67,4.0,7.0,77,0.00,,,0.00,meteohub,2013-01-09 02:07:00,
2013-01-08 20:12:00,61.5,54.3,30.22,ENE,69,5.0,8.0,77,0.00,,,0.00,meteohub,2013-01-09 02:12:00,
2013-01-08 20:17:00,61.3,54.1,30.22,East,91,6.0,8.0,77,0.00,,,0.00,meteohub,2013-01-09 02:17:00,
2013-01-08 20:22:00,61.3,54.1,30.22,East,85,5.0,9.0,77,0.00,,,0.00,meteohub,2013-01-09 02:22:00,
2013-01-08 20:27:00,61.2,54.3,30.22,East,98,6.0,9.0,78,0.00,,,0.00,meteohub,2013-01-09 02:27:00,
2013-01-08 20:32:00,61.2,54.3,30.22,ENE,67,9.0,10.0,78,0.00,,,0.00,meteohub,2013-01-09 02:32:00,
2013-01-08 20:37:00,61.0,54.1,30.22,East,87,6.0,11.0,78,0.00,,,0.00,meteohub,2013-01-09 02:37:00,
2013-01-08 20:42:00,61.0,54.1,30.21,ESE,116,7.0,11.0,78,0.00,,,0.00,meteohub,2013-01-09 02:42:00,
2013-01-08 20:47:00,61.0,54.1,30.21,East,81,7.0,11.0,78,0.00,,,0.00,meteohub,2013-01-09 02:47:00,
2013-01-08 20:52:00,61.0,54.1,30.21,East,91,6.0,13.0,78,0.00,,,0.00,meteohub,2013-01-09 02:52:00,
2013-01-08 20:57:00,61.0,54.1,30.22,East,86,9.0,13.0,78,0.00,,,0.00,meteohub,2013-01-09 02:57:00,
2013-01-08 21:02:00,61.0,54.1,30.22,NE,52,4.0,13.0,78,0.00,,,0.00,meteohub,2013-01-09 03:02:00,
2013-01-08 21:07:00,61.2,54.3,30.22,East,85,10.0,13.0,78,0.00,,,0.00,meteohub,2013-01-09 03:07:00,
2013-01-08 21:12:00,61.2,54.3,30.22,East,85,8.0,13.0,78,0.00,,,0.00,meteohub,2013-01-09 03:12:00,
2013-01-08 21:17:00,61.2,54.0,30.22,East,85,7.0,13.0,77,0.00,,,0.00,meteohub,2013-01-09 03:17:00,
2013-01-08 21:22:00,61.3,54.1,30.22,ESE,103,7.0,13.0,77,0.00,,,0.00,meteohub,2013-01-09 03:22:00,
2013-01-08 21:27:00,61.3,54.1,30.22,East,96,7.0,13.0,77,0.00,,,0.00,meteohub,2013-01-09 03:27:00,
2013-01-08 21:32:00,61.5,54.3,30.23,East,96,11.0,13.0,77,0.00,,,0.00,meteohub,2013-01-09 03:32:00,
2013-01-08 21:37:00,61.7,54.5,30.23,ESE,106,7.0,13.0,77,0.00,,,0.00,meteohub,2013-01-09 03:37:00,
2013-01-08 21:42:00,61.5,54.3,30.23,ESE,106,8.0,12.0,77,0.00,,,0.00,meteohub,2013-01-09 03:42:00,
2013-01-08 21:47:00,61.7,54.5,30.24,ENE,58,8.0,14.0,77,0.00,,,0.00,meteohub,2013-01-09 03:47:00,
2013-01-08 21:52:00,61.7,54.5,30.23,East,98,7.0,14.0,77,0.00,,,0.00,meteohub,2013-01-09 03:52:00,
2013-01-08 21:57:00,61.5,54.3,30.23,East,91,6.0,14.0,77,0.00,,,0.00,meteohub,2013-01-09 03:57:00,
2013-01-08 22:02:00,61.5,54.3,30.23,ESE,104,5.0,13.0,77,0.00,,,0.00,meteohub,2013-01-09 04:02:00,
2013-01-08 22:07:00,61.3,54.1,30.23,ESE,103,3.0,14.0,77,0.00,,,0.00,meteohub,2013-01-09 04:07:00,
2013-01-08 22:12:00,61.2,54.3,30.23,East,88,7.0,14.0,78,0.00,,,0.00,meteohub,2013-01-09 04:12:00,
2013-01-08 22:17:00,61.2,54.3,30.24,SE,127,8.0,15.0,78,0.00,,,0.00,meteohub,2013-01-09 04:17:00,
2013-01-08 22:22:00,61.0,54.1,30.24,East,87,5.0,15.0,78,0.00,,,0.00,meteohub,2013-01-09 04:22:00,
2013-01-08 22:27:00,61.0,54.1,30.24,East,87,6.0,13.0,78,0.00,,,0.00,meteohub,2013-01-09 04:27:00,
2013-01-08 22:32:00,60.8,54.0,30.24,East,92,8.0,11.0,78,0.00,,,0.00,meteohub,2013-01-09 04:32:00,
2013-01-08 22:37:00,60.6,53.8,30.24,East,83,7.0,11.0,78,0.00,,,0.00,meteohub,2013-01-09 04:37:00,
2013-01-08 22:42:00,60.4,54.0,30.25,East,89,9.0,11.0,79,0.00,,,0.00,meteohub,2013-01-09 04:42:00,
2013-01-08 22:47:00,60.4,54.0,30.25,East,87,3.0,16.0,79,0.00,,,0.00,meteohub,2013-01-09 04:47:00,
2013-01-08 22:52:00,60.3,53.8,30.25,East,87,7.0,16.0,79,0.00,,,0.00,meteohub,2013-01-09 04:52:00,
2013-01-08 22:57:00,60.3,53.8,30.25,East,82,5.0,16.0,79,0.00,,,0.00,meteohub,2013-01-09 04:57:00,
2013-01-08 23:02:00,60.3,53.8,30.24,East,88,7.0,11.0,79,0.00,,,0.00,meteohub,2013-01-09 05:02:00,
2013-01-08 23:03:00,60.3,54.1,30.24,East,91,6.0,11.0,80,0.00,,,0.00,meteohub,2013-01-09 05:03:00,
2013-01-08 23:04:00,60.3,53.8,30.24,ENE,65,7.0,11.0,79,0.00,,,0.00,meteohub,2013-01-09 05:04:00,
2013-01-08 23:06:00,60.3,54.1,30.24,East,98,7.0,11.0,80,0.00,,,0.00,meteohub,2013-01-09 05:06:00,
2013-01-08 23:11:00,60.1,54.0,30.24,ENE,76,4.0,12.0,80,0.00,,,0.00,meteohub,2013-01-09 05:11:00,
2013-01-08 23:16:00,60.1,54.0,30.24,East,92,13.0,13.0,80,0.00,,,0.00,meteohub,2013-01-09 05:16:00,
2013-01-08 23:21:00,60.1,54.3,30.24,East,88,5.0,13.0,81,0.00,,,0.00,meteohub,2013-01-09 05:21:00,
2013-01-08 23:26:00,59.9,54.1,30.24,ENE,70,5.0,13.0,81,0.00,,,0.00,meteohub,2013-01-09 05:26:00,
2013-01-08 23:31:00,59.9,54.1,30.24,East,101,9.0,14.0,81,0.00,,,0.00,meteohub,2013-01-09 05:31:00,
2013-01-08 23:36:00,59.7,54.0,30.24,ESE,103,4.0,14.0,81,0.00,,,0.00,meteohub,2013-01-09 05:36:00,
2013-01-08 23:41:00,59.7,54.1,30.24,East,89,13.0,14.0,82,0.00,,,0.00,meteohub,2013-01-09 05:41:00,
2013-01-08 23:47:00,60.1,54.5,30.24,ENE,75,7.0,15.0,82,0.00,,,0.00,meteohub,2013-01-09 05:47:00,
2013-01-08 23:52:00,60.3,54.3,30.24,East,90,7.0,15.0,81,0.00,,,0.00,meteohub,2013-01-09 05:52:00,
2013-01-08 23:57:00,60.1,54.5,30.24,East,84,6.0,15.0,82,0.00,,,0.00,meteohub,2013-01-09 05:57:00,